Wind_Speed
31 31 33 34 33 31 29 26 25 27 24 19 22 22 19 19 16 14 15 16 15 14 14 13 13 14 15 16 18 19 17 16 15 13 11 10 11 12 12 11 10 10 8 7 7 8 9 10 10 10 10 10 10 10 9 9 9 9 8 8 8 7 6 6 6 5 6 8 9 10 10 10 10 9 9 10 11 12 13 13 14 14 15 15 15 16
32 31 31 32 32 31 30 28 25 27 26 22 21 23 20 18 17 15 14 15 15 16 16 14 13 14 15 17 19 20 19 18 17 16 13 12 11 12 13 13 11 10 9 8 8 8 9 9 10 10 10 10 10 10 10 9 9 9 9 9 9 8 8 7 6 6 6 7 8 9 10 10 10 9 9 9 10 11 11 12 12 13 13 13 14 14
34 31 30 31 32 31 31 30 26 24 25 23 21 24 25 19 16 15 15 15 16 17 18 15 12 13 16 17 20 22 22 21 20 18 16 15 12 11 11 12 12 11 10 9 9 9 9 9 10 10 10 10 10 10 9 9 9 9 9 9 9 9 9 8 7 6 6 7 8 8 9 11 10 10 9 9 9 9 10 11 11 12 12 12 12 13
34 31 29 30 32 33 34 32 29 26 25 25 23 23 25 21 13 12 14 15 17 17 17 16 12 13 16 16 20 25 25 24 22 20 18 16 14 12 11 11 11 12 12 10 10 10 10 10 10 10 10 10 10 10 10 10 10 10 9 9 9 9 9 9 8 7 7 7 8 8 9 10 10 10 9 8 8 9 9 10 11 11 11 12 12 12
34 30 29 30 31 34 35 32 30 30 28 28 26 20 20 21 15 12 13 13 15 16 16 17 13 11 15 15 19 25 26 25 23 20 19 16 14 14 13 11 10 11 12 11 10 10 10 11 10 10 10 10 10 10 10 10 10 10 10 9 9 9 9 9 8 8 7 7 7 8 9 9 10 9 9 8 8 9 9 9 10 11 11 12 12 12
33 31 31 30 31 33 33 32 32 32 31 28 24 20 19 19 18 18 16 12 12 14 16 19 17 11 10 12 18 26 26 25 24 21 19 17 16 16 14 12 11 11 10 11 11 10 10 10 10 10 10 10 9 9 9 9 9 9 9 9 9 9 9 9 9 8 8 8 7 8 8 9 9 9 9 9 8 9 9 9 10 11 11 11 12 12
33 32 32 31 31 32 33 36 37 36 34 27 21 23 22 18 18 17 16 13 10 12 15 19 19 15 9 8 17 26 28 26 24 21 19 17 17 17 15 13 12 11 10 10 10 10 10 9 8 10 10 10 9 8 8 9 9 10 10 10 10 9 9 8 9 8 8 9 8 8 9 8 8 9 9 9 9 9 10 10 10 11 11 11 11 12
32 31 33 33 32 33 34 37 38 35 32 27 24 25 23 20 18 15 14 15 13 11 12 15 17 18 13 9 15 23 24 25 23 20 20 20 19 17 16 14 13 12 11 10 9 10 10 10 9 9 9 9 9 8 8 8 9 10 10 10 10 10 9 8 8 9 9 9 9 9 9 9 8 9 9 9 9 10 10 10 10 10 11 11 11 11
31 31 34 33 31 30 31 32 35 35 33 32 30 27 25 25 21 14 12 13 13 10 10 11 13 16 17 13 13 16 16 20 20 18 20 23 20 18 17 16 14 13 11 10 10 10 10 11 10 9 8 9 9 9 9 8 8 9 9 10 10 10 10 9 9 9 10 10 10 9 9 9 9 9 9 9 9 10 10 10 10 10 9 10 10 10
31 30 32 32 28 25 27 33 37 37 34 32 30 25 22 24 22 16 14 12 15 15 13 12 10 13 16 14 13 14 13 17 20 18 20 22 21 19 19 17 15 13 12 11 11 11 11 11 11 10 9 9 9 10 9 9 8 8 9 9 9 10 10 10 9 10 10 11 11 10 9 9 9 9 9 10 10 10 10 10 10 9 9 8 8 8
28 24 28 33 31 28 32 38 39 36 30 27 29 25 17 18 21 19 22 22 23 21 17 14 12 13 14 12 12 13 14 17 20 20 20 20 19 20 20 18 15 13 13 12 12 11 12 11 9 8 8 9 9 9 10 10 9 9 9 9 9 9 9 9 10 10 11 11 11 11 10 10 9 9 9 10 10 10 10 10 9 9 8 8 7 7
24 18 22 33 36 36 38 38 36 35 32 29 30 27 20 20 23 21 25 29 28 23 19 18 17 15 15 14 13 14 15 16 17 17 18 19 18 19 20 16 14 14 13 13 12 11 11 10 8 7 7 8 9 10 10 10 11 10 9 9 9 9 9 9 10 11 11 11 11 12 11 11 10 9 9 9 9 9 10 9 9 9 8 7 7 6
26 20 20 31 37 36 36 35 36 36 33 31 30 28 25 26 27 25 25 26 26 22 16 17 20 19 19 19 17 17 16 15 15 14 14 17 18 18 17 15 14 15 13 12 12 11 11 11 9 8 7 6 7 10 11 11 11 12 11 10 10 10 10 10 10 11 12 11 11 11 12 12 12 11 10 9 9 9 9 9 9 9 8 7 7 6
29 27 23 27 32 34 34 31 32 37 35 32 32 30 29 29 27 29 27 22 22 21 16 17 20 20 20 21 20 20 19 17 15 13 12 15 16 15 15 14 15 16 14 12 11 10 11 11 11 10 8 7 7 8 11 11 12 12 13 12 11 10 10 10 10 11 12 12 12 11 11 12 12 12 11 11 10 9 9 8 8 8 8 7 7 6
27 29 28 25 24 30 33 28 27 34 34 32 33 32 31 29 25 26 27 24 22 21 18 20 22 23 22 21 22 21 21 20 18 15 13 14 17 17 16 16 17 16 15 13 11 11 12 12 13 12 11 9 9 8 10 12 13 14 14 13 12 11 11 11 11 11 12 13 13 12 12 12 12 12 12 11 11 10 9 9 8 8 8 7 7 6
25 25 24 24 24 25 28 30 32 34 31 31 34 32 30 27 20 15 15 16 17 17 17 21 24 27 25 23 25 25 23 22 20 18 15 14 18 20 21 20 20 19 16 14 13 13 14 15 15 14 12 11 10 10 9 11 14 15 15 14 13 13 12 11 10 10 11 12 13 14 13 13 12 12 12 12 12 11 10 10 9 8 8 7 7 6
24 19 15 19 24 24 29 34 34 32 31 32 34 31 30 26 19 14 8 8 11 14 19 23 26 27 25 22 23 22 22 21 20 20 18 17 19 21 22 20 17 18 17 16 16 16 15 15 13 12 12 12 13 12 11 11 13 14 15 15 14 13 12 12 11 11 11 12 13 13 14 14 13 13 13 13 12 12 11 11 10 9 8 7 7 6
26 20 16 20 22 22 29 36 33 29 31 34 35 34 33 29 24 21 18 17 17 20 24 25 26 25 22 22 22 20 20 22 22 21 21 22 21 20 20 18 15 17 19 19 19 18 15 12 10 11 13 14 15 14 12 12 11 11 12 13 12 13 13 13 12 11 12 12 13 14 14 15 15 14 14 13 12 12 12 12 11 10 9 8 8 7
26 22 19 24 24 22 28 35 36 33 30 33 37 37 35 33 30 27 25 24 24 26 28 27 27 26 24 25 25 24 22 22 23 22 21 23 21 20 20 19 18 19 19 17 17 17 15 11 11 14 16 18 19 17 16 17 14 11 12 12 12 12 13 13 13 12 12 13 13 15 15 16 16 15 15 14 14 14 13 13 13 12 11 10 9 8
25 24 23 25 25 24 28 33 36 36 33 33 37 39 37 35 31 29 27 26 25 24 26 28 29 27 26 27 28 30 28 25 23 21 20 20 20 21 22 22 22 23 21 19 17 17 16 14 15 17 17 18 17 15 16 19 16 12 15 15 15 15 15 14 15 15 14 14 14 15 15 16 16 16 16 15 15 15 15 15 14 13 12 11 10 9
20 18 18 20 21 25 30 31 32 35 34 32 32 34 36 34 31 30 28 27 26 23 23 26 26 25 25 26 29 33 32 29 26 22 19 18 18 20 23 23 24 23 23 22 19 18 17 16 16 16 15 14 13 13 16 18 17 17 20 20 19 18 17 17 17 18 17 15 15 15 15 16 17 17 16 16 16 16 16 15 15 14 13 13 12 11
21 18 15 15 14 19 27 30 30 33 33 33 28 25 29 30 26 26 24 24 28 26 23 23 23 25 26 27 28 29 26 25 25 23 21 20 18 19 22 23 23 21 21 21 20 20 20 19 17 17 16 15 15 16 17 19 20 21 22 22 20 19 19 20 19 19 18 17 16 16 16 17 17 17 16 16 16 17 17 17 16 15 15 14 13 13
24 23 17 13 9 10 21 29 34 36 35 36 31 24 26 26 22 22 22 24 30 30 27 25 23 25 28 29 30 28 25 24 22 20 20 21 21 21 22 23 23 21 21 21 21 21 22 21 19 18 17 16 17 16 15 16 18 19 19 18 18 18 20 20 18 17 18 18 18 18 17 17 17 17 17 16 16 17 17 18 17 16 16 16 15 14
26 25 19 16 15 13 19 27 35 40 40 38 32 26 27 27 25 27 27 27 32 34 32 29 28 27 27 28 29 27 27 28 24 19 16 16 19 21 21 23 25 24 24 24 22 22 23 22 21 20 19 18 18 16 15 14 14 15 18 17 15 16 18 18 18 18 19 19 19 19 19 19 18 18 18 18 18 18 18 19 18 18 17 17 16 16
29 28 23 20 19 17 19 24 31 38 41 40 35 31 32 30 28 30 30 27 32 38 37 32 29 29 27 26 26 26 25 25 23 20 16 16 17 20 21 22 24 25 26 25 24 23 23 23 22 22 22 23 23 21 19 16 11 11 15 18 17 17 19 20 20 20 20 21 21 21 21 21 19 18 18 19 19 19 19 19 19 19 19 19 18 17
30 32 28 25 25 23 22 23 26 31 36 39 39 34 32 33 33 33 33 30 31 39 41 36 31 29 27 25 25 27 27 25 22 20 20 20 20 21 22 22 22 24 25 25 24 23 23 23 23 22 21 23 24 23 20 17 13 12 14 17 17 18 20 22 22 22 22 23 24 24 23 22 20 19 19 20 21 21 20 20 19 20 20 20 20 19
31 31 29 26 26 25 26 24 24 29 34 39 41 33 28 34 38 37 36 34 33 36 37 36 34 33 30 28 27 28 30 29 24 19 19 21 22 23 24 24 23 24 24 24 24 23 23 23 23 23 22 22 23 22 21 19 17 17 19 18 17 16 19 21 22 23 24 25 25 24 25 24 23 22 21 22 24 24 23 22 21 21 21 21 21 20
32 30 26 24 24 24 26 26 24 27 33 41 44 38 32 37 41 39 38 38 37 37 35 33 34 34 32 31 30 30 31 30 26 23 22 21 21 21 24 24 25 25 25 25 24 24 24 24 24 24 24 23 23 22 22 21 20 20 21 20 17 17 19 21 22 23 25 27 27 27 27 28 27 24 22 22 24 25 25 24 23 22 22 22 22 21
36 33 30 28 25 23 24 24 24 26 32 40 45 40 36 40 42 40 39 41 42 42 40 36 34 34 34 34 33 32 32 29 26 26 27 25 22 22 22 23 24 25 26 26 26 25 25 25 26 26 25 25 25 24 24 24 23 22 22 20 17 17 19 21 22 23 24 27 29 30 30 31 29 26 24 24 25 26 25 24 23 23 22 22 22 22
39 36 37 34 30 28 26 25 25 25 27 35 42 42 41 43 43 40 38 42 45 45 43 41 38 38 39 38 36 34 31 28 24 24 27 27 25 23 24 24 24 26 27 27 28 28 28 28 28 28 28 27 27 27 26 26 25 24 24 21 18 17 17 17 18 19 22 27 29 30 30 30 30 29 27 26 27 26 25 24 22 21 21 22 21 21
38 37 38 36 33 34 34 31 28 26 26 31 39 43 45 44 43 41 39 42 46 47 47 46 45 43 42 42 41 38 34 30 26 23 24 25 25 24 24 25 25 26 28 29 30 30 30 30 30 31 30 29 29 28 28 28 27 27 26 24 21 19 17 17 16 16 19 26 29 28 28 29 29 29 29 29 28 27 25 24 22 21 21 22 21 21
33 34 36 34 31 33 35 32 30 29 28 29 33 37 41 42 43 43 43 44 46 46 47 49 49 48 46 44 44 42 38 34 32 29 25 23 22 22 24 25 24 25 28 29 31 32 32 32 32 33 33 32 32 31 30 30 30 29 27 26 23 20 17 17 18 18 18 23 28 28 28 29 29 28 29 29 29 28 27 27 26 24 23 22 22 21
27 30 33 34 32 32 31 29 30 30 28 27 29 31 33 35 39 43 45 46 47 46 46 48 48 48 49 48 47 45 41 36 33 32 30 28 24 21 23 26 26 25 26 28 30 32 33 33 34 34 35 36 35 34 34 33 32 31 30 28 26 23 19 18 19 20 20 21 26 28 28 28 28 28 28 28 28 28 29 29 29 27 24 23 23 23
25 26 29 32 33 32 28 26 28 30 31 30 30 30 28 29 32 37 40 44 47 48 47 47 47 47 48 48 48 47 45 42 38 34 32 32 31 27 26 27 29 29 28 28 30 31 32 34 34 35 36 37 38 37 37 36 36 35 33 31 29 27 24 21 21 21 21 22 24 27 28 29 29 28 28 28 28 29 31 31 31 30 28 25 25 26
25 26 28 28 29 28 26 24 26 29 32 34 34 33 32 30 30 31 31 36 44 50 49 47 46 47 47 47 48 48 48 47 45 41 36 35 34 32 29 29 31 31 31 30 30 31 33 34 35 35 36 37 38 39 39 39 38 38 37 35 33 31 29 26 25 24 23 23 24 25 27 28 30 30 29 29 30 31 34 34 32 32 32 30 28 29
23 25 27 28 26 25 26 29 29 29 31 34 35 35 36 34 32 31 30 33 41 48 50 49 49 49 49 49 48 48 48 47 46 44 41 39 38 36 33 32 32 33 32 32 32 33 34 35 36 36 36 37 37 38 39 40 40 40 39 38 37 35 33 31 29 28 27 26 26 26 27 27 29 30 31 31 30 30 32 33 31 31 32 32 31 31
20 21 24 26 26 25 28 31 31 29 30 31 30 31 33 33 33 34 33 33 36 39 42 44 46 48 48 48 47 46 48 47 45 43 41 39 40 40 37 35 36 36 35 34 33 33 35 36 37 38 38 38 38 38 39 39 40 40 41 41 40 39 37 35 34 32 31 29 28 28 28 28 28 29 30 31 29 28 29 30 29 31 33 33 33 32
18 19 21 23 23 25 28 30 30 29 27 28 29 29 30 33 34 34 33 31 32 34 34 34 36 40 42 44 44 44 45 46 45 44 42 39 40 41 39 36 35 37 37 35 34 35 36 37 38 39 39 39 40 39 39 40 40 40 41 41 42 42 41 40 38 36 35 33 32 31 30 30 30 30 30 30 29 28 29 29 29 31 34 34 33 33
17 18 19 20 20 24 28 30 31 28 26 28 32 31 30 30 29 29 30 30 32 35 35 34 35 38 41 42 42 43 44 45 45 46 45 44 42 42 40 37 35 36 38 38 37 38 39 38 38 39 40 41 42 41 40 40 40 41 41 41 42 42 43 42 41 40 39 38 36 34 33 32 31 31 31 31 29 29 30 30 29 31 33 34 33 33
19 19 19 19 19 23 27 30 31 30 28 29 31 30 28 27 27 26 28 31 33 36 37 36 36 38 41 41 42 43 44 45 47 48 47 46 43 42 41 40 38 37 38 38 39 40 40 39 39 40 40 42 43 43 42 41 40 41 42 42 42 43 43 44 44 43 43 42 41 40 38 36 34 33 33 32 31 30 30 30 30 31 33 33 32 32
19 20 21 21 21 22 26 29 31 33 32 32 32 30 28 28 29 28 29 31 33 36 37 37 37 39 41 41 41 42 43 46 49 50 49 48 45 43 41 41 41 41 40 41 43 43 42 42 43 42 42 42 43 44 43 43 42 43 43 44 44 43 43 44 45 45 45 44 44 44 43 41 38 37 35 34 33 31 31 30 30 31 32 34 34 34
15 18 19 22 24 24 26 28 31 33 33 32 32 32 31 30 30 29 29 30 33 36 39 39 38 39 39 39 38 39 42 46 48 48 49 49 48 46 44 43 43 43 44 46 47 46 45 46 46 46 46 45 45 46 46 45 45 45 46 46 46 45 44 44 45 46 46 46 46 46 46 45 43 41 39 38 37 35 33 32 32 31 32 33 36 36
14 15 15 17 20 24 27 29 31 32 33 32 32 32 32 31 31 30 29 29 30 33 35 35 35 35 35 35 36 38 42 45 46 46 48 49 50 49 48 47 47 47 47 47 47 47 47 47 48 48 48 48 49 49 49 49 48 47 47 48 48 47 46 46 46 47 48 48 47 47 48 48 47 45 43 42 42 40 37 35 34 33 33 33 35 36
15 15 16 16 18 20 23 27 30 32 33 34 34 34 34 33 33 32 31 30 30 31 32 32 32 33 33 33 34 37 40 42 43 44 46 48 50 50 49 48 49 49 49 48 48 48 49 49 49 49 49 49 49 50 51 50 50 50 50 50 49 49 49 49 48 49 49 49 48 49 49 49 49 48 47 46 45 45 43 41 39 37 36 35 35 35
15 15 16 18 19 19 20 21 23 24 27 29 31 33 35 35 35 34 34 34 33 33 34 34 33 33 33 33 33 35 38 41 42 43 43 44 47 49 49 48 48 48 49 50 50 51 51 51 52 52 52 52 52 52 52 51 51 51 52 52 52 52 51 51 51 51 51 50 50 50 50 51 51 51 50 49 48 47 47 46 45 44 41 40 39 37
16 16 16 18 21 22 23 23 22 22 24 25 26 28 29 30 31 33 35 37 37 37 38 38 36 35 33 33 34 35 37 40 42 42 41 41 43 45 46 47 47 47 47 48 49 50 51 52 53 54 54 54 54 54 54 54 53 53 53 53 53 53 53 53 53 53 53 53 52 52 51 52 52 52 52 51 50 49 49 49 49 48 47 46 45 44
19 18 18 19 21 22 24 25 26 26 27 27 26 26 26 26 27 29 32 33 36 38 40 40 39 38 36 36 38 38 38 39 41 42 41 40 41 43 44 45 45 45 45 46 47 48 49 50 51 52 53 54 54 54 54 54 54 54 54 54 54 54 54 54 54 54 55 55 54 54 54 53 53 54 53 53 51 51 51 52 52 51 51 51 50 50
22 20 19 20 23 24 25 27 28 28 30 30 30 30 29 27 27 28 28 29 31 33 35 37 39 39 39 40 40 40 40 41 42 42 41 41 41 42 43 44 45 45 45 45 45 45 46 48 49 50 51 51 52 53 53 53 52 53 53 53 53 53 53 53 54 54 55 55 55 55 55 55 55 55 55 54 53 53 52 52 53 53 54 54 54 54
23 22 22 24 24 25 27 29 29 30 31 33 33 34 34 32 31 30 29 30 30 30 31 33 35 36 37 38 38 39 40 41 42 42 43 42 41 42 43 44 45 46 45 45 44 44 44 45 46 48 49 50 50 51 51 51 51 50 51 51 51 51 51 52 53 53 54 55 56 56 56 56 56 56 56 55 55 55 54 54 54 54 54 55 56 57
26 26 26 26 26 26 27 29 30 31 32 32 33 34 36 36 35 34 33 33 33 34 33 33 33 33 34 34 34 35 37 39 40 41 42 43 43 43 43 44 45 46 46 46 45 44 44 44 44 45 47 48 49 50 50 50 50 50 50 49 49 50 50 51 51 52 53 54 55 55 55 55 55 55 55 56 56 56 56 56 56 55 55 55 56 57
30 30 29 30 31 30 30 31 32 33 34 34 34 34 34 36 36 36 37 37 37 37 37 37 36 35 34 34 33 33 34 35 37 38 40 41 42 42 43 45 46 47 48 48 47 47 46 45 45 45 45 47 48 49 50 50 50 50 51 50 50 50 50 50 51 52 53 54 54 55 55 55 54 54 54 55 55 56 56 57 57 56 56 55 56 57
Wind_Direction
212 211 209 208 204 198 194 193 199 204 196 202 218 217 214 216 217 210 205 211 213 214 219 216 206 196 192 197 202 204 203 205 204 197 194 196 193 190 189 191 185 181 186 189 185 177 169 166 164 163 163 162 161 162 161 157 153 151 146 141 139 135 130 126 127 126 115 107 101 98 98 93 89 87 86 93 99 101 100 98 96 94 92 91 92 91
212 211 210 210 207 199 193 191 197 206 203 202 213 216 213 217 218 206 201 210 211 213 217 218 214 199 194 202 206 201 197 205 208 197 192 194 198 199 193 190 186 181 183 188 187 183 178 174 170 165 167 169 164 163 162 157 156 155 152 149 144 140 138 139 139 139 132 119 112 107 100 96 94 93 92 94 98 99 100 99 98 97 94 93 94 95
212 211 208 208 208 202 196 192 192 203 210 209 213 214 209 215 220 199 197 211 208 211 214 211 215 205 199 206 206 201 201 206 206 199 194 193 194 201 200 194 188 183 184 187 184 184 185 182 177 170 170 171 166 164 161 156 157 156 155 153 149 147 147 149 150 148 147 134 123 116 107 102 101 99 96 95 97 98 101 101 101 100 97 94 95 98
211 209 208 208 206 204 199 193 190 196 206 211 212 216 215 214 214 191 194 209 206 211 212 205 212 212 208 217 212 204 202 204 204 197 191 191 191 193 196 197 194 190 190 191 184 181 186 188 183 176 174 171 167 166 162 159 158 155 156 156 154 154 154 156 157 156 156 146 134 123 112 108 106 104 100 98 100 101 103 104 103 102 99 96 97 99
212 207 208 208 206 206 201 193 193 196 203 212 210 212 220 218 216 202 194 201 206 213 216 208 206 205 211 224 222 211 201 196 196 191 185 189 196 191 185 188 200 203 197 194 190 182 184 191 187 180 178 176 172 168 164 160 157 153 154 157 158 158 159 160 160 160 159 152 141 127 115 111 110 108 106 104 105 107 107 105 104 103 101 98 98 100
211 206 207 208 206 207 202 193 196 199 201 209 212 212 215 219 222 215 204 200 206 214 220 217 208 198 206 219 216 207 197 191 191 190 188 194 199 193 182 181 195 208 205 198 197 192 189 191 189 184 183 182 176 169 164 158 153 151 154 159 161 161 163 164 163 160 156 150 145 135 124 121 118 114 113 111 111 112 110 107 105 104 102 100 99 101
211 206 206 207 205 205 201 196 197 202 200 199 208 216 213 216 218 209 198 191 195 210 215 215 210 206 208 210 204 198 193 193 194 194 199 201 196 191 188 185 188 199 201 197 200 202 200 199 196 189 186 185 180 171 166 160 155 155 158 161 162 163 165 167 165 160 152 150 152 146 137 132 125 118 114 114 116 115 112 109 107 106 106 103 101 101
210 207 206 206 205 203 201 200 199 202 201 194 202 215 211 209 207 190 175 173 179 199 205 209 215 215 216 211 200 194 189 191 195 200 204 201 195 193 194 192 189 191 193 192 195 201 204 206 209 202 193 188 183 177 172 167 163 163 164 165 166 166 167 170 167 161 155 154 158 157 147 140 134 125 120 119 120 118 116 113 109 108 109 108 105 103
208 207 207 205 204 204 202 201 201 202 201 197 200 209 211 210 207 183 158 170 192 207 208 210 218 219 221 221 207 199 192 187 190 196 196 194 196 201 201 199 196 191 190 189 186 194 204 208 214 214 206 195 186 182 179 175 172 170 169 170 173 171 169 171 170 165 161 159 163 165 156 148 145 138 131 126 124 123 122 120 116 113 112 110 109 107
208 207 209 204 197 200 200 198 200 202 202 201 200 201 206 213 209 181 152 176 214 223 217 209 209 217 218 219 217 214 207 194 190 193 191 192 200 204 202 201 200 191 188 188 185 189 200 208 214 218 216 207 193 186 184 182 181 179 177 175 178 180 174 171 172 170 169 166 167 169 164 156 153 149 141 135 132 130 130 128 124 122 119 117 115 111
205 202 210 204 193 196 200 198 198 197 193 195 199 193 192 211 211 185 167 183 208 218 215 200 193 206 206 203 212 214 211 202 198 199 196 197 203 201 196 197 195 188 186 191 193 194 196 198 206 215 221 216 204 194 189 188 188 189 187 181 179 184 183 178 174 174 177 174 170 171 170 164 159 157 150 144 141 138 137 135 132 131 130 128 127 122
195 194 210 208 201 201 202 199 196 195 189 185 191 186 182 207 216 201 183 186 198 206 206 201 196 202 202 202 210 212 210 200 196 199 199 200 202 193 190 193 193 190 189 193 198 201 199 193 193 205 216 216 211 202 195 192 193 194 194 188 182 184 188 187 180 177 180 181 178 175 173 168 165 164 161 155 152 148 144 143 141 139 140 138 137 136
186 186 210 212 209 206 204 201 198 199 195 185 186 183 183 201 213 212 201 194 196 195 197 206 207 205 203 205 213 217 214 206 198 198 199 198 193 183 181 187 195 198 195 194 197 200 203 201 196 199 203 201 204 204 197 196 198 199 200 196 189 186 189 193 189 182 181 184 186 183 178 173 168 167 167 165 164 162 157 154 151 149 150 151 150 149
188 183 202 211 210 208 203 198 196 203 202 190 183 181 187 200 207 209 208 202 197 190 194 212 215 218 214 209 218 223 222 222 214 204 200 196 191 184 182 184 194 200 198 196 199 200 205 207 201 200 201 194 195 203 202 201 202 202 204 204 197 190 190 195 195 189 184 184 189 191 186 180 174 172 172 171 171 173 171 169 166 163 165 167 164 160
195 194 207 207 205 209 203 194 194 200 201 196 188 182 190 201 206 209 211 208 197 186 196 216 220 225 225 218 222 227 228 231 228 219 211 201 194 193 192 189 190 195 198 200 202 205 210 209 203 202 204 200 197 204 206 205 206 206 206 208 204 198 196 196 197 196 190 187 189 192 193 189 183 179 177 175 175 176 179 180 178 177 176 175 174 170
198 205 215 212 209 207 195 194 202 198 192 198 197 187 190 199 198 196 206 211 202 192 204 221 222 223 226 227 226 225 226 230 230 227 218 199 192 194 197 195 191 190 194 199 203 209 214 212 204 201 204 205 204 208 210 209 209 208 208 210 209 206 202 199 200 200 198 195 193 194 197 197 193 190 186 183 180 178 181 184 185 187 186 181 180 179
193 193 205 220 220 207 187 191 203 197 189 199 200 188 186 194 188 170 177 204 201 205 217 224 226 224 223 226 223 220 222 224 227 229 224 211 201 201 203 200 193 190 190 199 208 213 217 213 205 207 215 215 211 213 216 217 216 213 211 211 214 214 210 205 202 201 202 203 202 201 201 202 201 200 198 194 188 183 183 187 189 192 194 194 193 192
190 181 194 221 222 210 195 194 197 190 187 196 197 188 184 187 183 177 189 200 197 210 224 228 232 236 235 234 233 235 233 227 227 228 226 222 216 214 215 207 203 205 203 206 213 219 222 216 210 218 225 223 218 216 218 220 222 222 218 215 219 224 224 219 212 206 207 207 207 208 207 207 207 206 205 202 198 194 191 191 194 196 197 201 203 203
191 180 196 214 210 206 204 203 202 193 189 197 198 194 189 185 184 183 187 191 193 208 223 228 231 233 237 240 241 246 243 232 229 228 226 228 225 223 223 214 212 219 216 211 214 221 225 225 224 225 225 225 221 217 216 215 213 221 226 216 214 222 228 230 227 219 215 213 214 214 212 212 212 210 208 205 202 202 200 198 198 199 200 203 207 208
188 184 199 211 208 206 203 207 211 201 195 204 206 201 194 187 187 189 187 185 190 208 223 230 231 228 231 238 238 239 239 233 231 229 226 228 225 223 222 217 216 222 225 222 222 226 229 233 238 238 238 235 227 221 222 215 204 216 232 222 211 214 218 223 229 227 222 219 220 222 220 218 217 213 211 208 205 206 206 205 204 204 205 206 208 209
176 180 202 211 210 210 201 200 208 201 195 203 207 205 201 195 194 197 194 186 188 209 227 233 238 239 240 241 234 231 232 230 229 230 228 224 222 220 220 220 219 223 228 230 229 229 229 231 237 245 249 244 232 228 232 224 210 213 225 222 213 214 216 217 222 224 221 217 220 226 228 226 224 220 214 209 208 208 209 210 210 210 211 210 210 209
160 165 191 202 205 214 205 197 196 193 192 194 196 203 205 201 198 200 203 195 193 211 230 232 235 241 243 242 234 229 230 229 227 226 224 222 223 223 221 222 221 220 224 229 229 228 228 229 232 240 244 237 232 233 237 234 223 216 219 220 217 218 222 221 220 221 221 218 217 220 225 230 231 229 224 216 212 211 211 212 214 215 216 216 215 212
163 168 177 170 156 184 198 197 191 187 190 193 190 188 188 191 195 196 198 200 202 211 224 228 229 233 239 239 232 227 229 230 228 224 220 223 230 230 224 222 221 218 218 223 228 231 232 234 234 238 241 238 236 239 240 236 228 222 224 229 228 227 229 227 223 224 226 225 223 219 220 227 231 233 233 226 219 215 213 214 215 217 219 221 221 218
173 171 167 151 144 162 188 196 194 192 195 197 192 180 177 189 202 196 189 198 207 209 216 225 227 227 232 231 225 227 233 233 228 219 212 215 224 228 225 221 220 220 221 223 227 232 234 236 235 234 236 235 232 232 235 236 231 225 224 228 233 236 236 235 232 231 230 229 230 228 225 227 228 231 235 234 228 222 217 216 216 217 220 223 225 224
179 178 177 166 161 173 191 197 197 198 200 199 190 180 182 193 199 193 188 197 208 208 213 225 226 221 226 228 223 222 227 227 221 214 209 208 215 222 224 224 224 226 228 229 230 233 235 237 237 234 231 231 231 230 233 242 247 234 223 221 224 229 233 233 231 230 228 226 230 235 233 231 228 228 233 236 235 230 224 221 218 218 219 222 226 227
187 191 193 188 179 183 197 200 197 199 202 199 191 185 193 198 193 190 194 202 208 207 212 224 225 220 223 227 223 219 221 229 228 220 215 216 223 228 224 225 228 230 232 232 233 237 239 241 243 242 238 237 239 240 243 252 259 249 236 229 227 229 232 232 230 228 226 223 226 233 235 231 226 225 229 234 235 233 230 226 223 221 221 222 225 227
194 196 198 201 201 202 207 206 199 194 194 194 187 185 201 205 194 192 199 208 211 207 210 220 222 220 224 225 224 224 228 235 236 228 217 216 227 234 228 224 227 229 232 233 234 238 241 243 246 248 247 247 249 249 250 254 253 243 238 237 238 240 237 234 233 233 231 227 226 230 231 227 225 224 226 231 235 234 230 226 224 225 224 223 224 226
196 196 196 201 208 213 210 208 207 199 194 192 188 189 201 206 198 195 202 211 213 209 213 220 218 219 224 224 223 225 230 236 238 238 233 224 225 231 229 226 226 228 231 233 234 238 241 244 246 248 250 251 254 255 252 251 248 239 237 241 249 252 247 241 238 236 234 231 226 222 223 227 230 231 231 232 236 237 235 230 224 223 225 226 225 225
201 205 207 206 209 214 214 217 219 210 201 197 193 193 201 204 200 197 202 211 212 211 219 224 222 224 228 228 227 227 230 237 241 242 241 234 225 223 226 228 228 228 230 232 235 237 239 242 245 247 249 249 252 255 255 252 250 244 242 248 257 258 254 252 247 240 235 231 224 218 219 226 231 233 233 233 235 237 238 236 230 226 227 230 231 230
209 217 220 217 216 214 214 219 223 219 211 203 198 199 204 206 203 199 203 211 212 213 220 223 224 228 231 231 231 230 232 237 242 244 243 237 229 224 229 232 231 230 230 231 233 235 236 240 243 246 248 248 249 252 254 253 252 249 247 251 260 259 253 253 251 245 236 228 222 217 219 226 230 231 231 231 234 237 237 238 238 237 235 235 238 240
211 219 222 221 220 220 218 218 220 222 219 210 205 206 209 210 207 202 205 213 214 213 217 221 224 227 229 232 234 234 235 239 243 246 244 239 232 227 231 234 231 230 230 231 233 234 236 238 242 247 249 250 250 251 253 254 253 253 251 252 258 261 257 253 255 254 239 225 221 220 223 228 232 234 234 233 236 239 239 241 242 242 243 240 239 242
210 214 218 217 217 223 224 219 215 215 214 213 214 215 214 213 210 205 207 215 218 217 217 221 225 226 228 232 234 236 239 241 242 241 241 239 231 224 227 231 230 229 229 231 234 235 236 237 240 244 248 250 252 252 254 255 255 256 255 254 257 261 262 259 257 257 246 231 225 226 227 230 234 238 240 240 240 240 240 241 240 238 241 242 241 241
212 213 217 216 213 218 224 222 215 211 210 213 217 220 218 214 211 210 212 218 222 222 221 223 225 227 229 232 234 237 239 241 242 240 239 238 234 229 229 231 231 231 231 233 235 237 238 239 239 241 244 247 250 251 253 255 256 257 257 256 257 258 260 261 257 255 251 243 236 233 232 232 233 234 236 238 242 242 240 239 239 238 238 240 241 241
215 215 219 220 216 216 220 224 219 213 212 213 217 222 222 216 211 212 217 223 225 225 225 225 226 228 230 232 235 238 239 241 243 243 243 243 243 244 241 237 235 237 238 238 239 240 242 242 242 242 243 245 247 249 251 254 256 257 256 256 256 255 255 256 257 255 251 247 243 239 237 237 236 234 233 232 236 239 239 237 235 234 234 236 238 238
216 216 218 220 220 218 219 224 225 220 218 219 221 226 228 224 218 215 219 225 226 225 227 228 229 231 232 234 237 239 241 242 243 243 244 245 246 247 246 244 242 242 242 243 243 244 246 247 247 247 246 247 248 249 251 253 255 257 257 256 255 256 255 253 254 256 254 251 248 244 240 239 239 239 238 237 237 238 239 237 233 229 230 235 237 237
217 218 219 219 217 215 218 227 231 228 226 225 226 228 231 232 231 227 225 226 224 224 227 229 232 235 237 238 239 240 241 243 243 243 244 245 246 245 245 246 246 245 245 245 245 245 246 247 249 250 250 250 250 251 252 253 255 256 258 258 257 257 257 256 255 256 256 255 253 250 246 243 241 240 239 239 240 240 240 238 234 232 234 238 240 241
216 217 220 221 215 210 215 225 230 231 232 230 228 228 231 233 234 234 234 234 231 228 228 230 234 237 239 241 242 241 242 242 242 242 242 244 245 244 243 245 247 249 248 246 246 247 247 247 248 249 250 251 251 252 253 254 255 256 258 259 260 259 259 258 257 256 256 256 255 254 252 251 249 247 243 241 241 241 240 238 237 239 241 242 242 242
215 213 216 219 215 210 215 222 227 231 235 234 231 229 231 235 237 238 239 239 238 235 231 231 234 237 238 240 241 243 244 244 242 240 239 239 241 242 242 242 246 250 251 249 248 249 249 248 248 248 250 251 251 252 252 253 254 256 257 258 260 261 261 260 259 257 256 256 256 256 255 255 255 254 253 250 246 244 241 237 237 239 240 240 242 241
219 215 216 217 210 208 215 220 223 226 231 236 237 234 233 235 238 239 238 238 240 239 236 233 234 236 237 237 238 242 244 245 245 244 241 239 240 242 244 243 244 246 249 250 250 250 250 250 250 250 250 251 251 251 252 253 254 254 255 256 258 261 262 262 262 261 259 258 258 257 256 255 255 255 255 254 251 250 248 243 240 239 237 237 239 240
226 222 221 219 210 207 213 218 219 223 228 235 240 238 233 231 232 233 232 232 237 240 240 237 236 237 239 240 240 241 244 246 248 248 246 243 242 242 243 243 242 243 247 250 251 251 252 252 252 252 251 252 253 253 253 254 254 254 254 254 255 257 259 261 263 263 263 263 262 261 260 257 256 255 256 255 253 252 253 252 250 247 243 240 239 239
230 229 226 225 219 212 213 215 218 224 230 235 239 241 238 234 233 231 229 230 235 240 242 240 237 238 241 244 245 245 246 246 247 248 249 248 246 244 243 242 242 243 245 248 250 252 253 253 253 253 252 253 254 255 256 256 255 255 255 254 254 253 255 257 260 261 263 263 263 264 264 263 261 258 257 257 256 253 253 254 254 252 249 245 241 240
231 231 231 230 228 223 220 218 220 225 232 236 240 243 244 243 240 238 235 235 238 241 243 243 242 243 245 245 245 246 247 248 249 250 251 251 249 247 245 244 243 243 244 246 249 252 253 253 254 255 255 254 255 255 257 258 257 257 257 257 256 254 253 254 255 257 259 260 261 262 263 264 264 262 260 259 258 256 253 253 253 253 252 249 245 243
239 235 235 235 233 231 229 227 227 229 234 238 241 243 244 244 244 244 243 241 239 241 244 245 245 245 245 243 242 243 246 249 251 252 252 252 251 250 248 247 246 246 247 248 249 250 251 252 254 255 255 256 255 256 257 258 258 258 258 258 258 257 255 253 252 253 255 256 258 259 260 262 262 263 262 261 261 259 256 253 252 251 252 253 251 249
244 241 241 240 238 237 236 236 236 237 239 242 244 245 246 245 246 247 247 245 242 240 242 245 245 244 243 242 242 243 244 246 248 249 251 252 253 253 252 251 250 250 250 250 250 249 250 251 252 254 255 256 256 256 257 258 258 259 259 259 258 258 257 255 253 253 253 254 255 256 257 259 260 260 260 260 261 261 260 259 256 253 251 252 254 255
247 245 247 246 243 243 244 244 243 244 245 246 247 249 250 249 250 251 251 250 247 245 244 245 246 246 245 244 244 243 243 244 245 247 249 251 252 253 253 253 252 251 251 251 250 250 251 252 253 254 255 256 256 257 257 258 258 259 259 259 259 258 258 257 256 254 254 253 253 254 255 257 258 258 259 258 259 260 261 261 261 258 256 254 254 255
253 247 244 245 245 244 243 244 245 244 243 242 242 245 248 249 249 248 248 248 248 248 247 247 247 247 246 245 246 246 245 245 246 247 248 249 251 252 253 254 254 253 252 251 251 252 252 253 254 254 255 256 257 257 258 258 258 258 259 259 259 259 259 258 258 257 255 254 254 253 254 255 256 256 257 257 258 258 258 260 261 261 260 259 257 256
252 247 244 245 247 247 245 244 244 244 245 244 242 243 244 246 248 249 249 249 249 249 249 249 250 249 248 247 248 249 248 248 249 249 249 250 250 250 251 253 254 253 253 252 252 252 253 254 255 255 255 256 257 258 259 259 259 259 259 259 259 260 260 260 259 258 257 257 256 255 254 254 255 255 255 255 256 255 256 257 258 259 260 260 260 260
251 250 249 249 248 248 248 247 246 245 246 248 248 247 245 244 248 251 253 252 249 248 248 249 249 249 248 248 250 251 251 250 250 250 251 251 251 251 251 252 253 253 253 252 252 252 252 253 254 255 256 256 257 257 258 259 260 260 260 259 259 260 260 260 260 260 259 258 258 257 256 256 255 255 256 255 255 254 254 254 255 256 258 259 260 261
255 253 251 250 249 249 250 252 251 249 247 247 249 250 250 247 246 248 251 253 253 252 250 249 250 250 248 248 248 250 251 252 252 252 252 252 252 253 253 254 255 255 255 255 253 252 251 251 253 254 256 257 257 257 258 259 260 260 260 260 260 260 260 260 261 261 260 260 259 258 258 258 257 257 257 257 256 254 253 253 253 254 254 256 258 259
259 258 257 257 256 254 253 255 256 256 254 252 251 253 255 255 253 250 249 252 255 257 256 254 252 252 252 251 250 249 250 252 253 253 253 252 252 252 253 255 256 257 258 258 257 255 254 253 253 254 255 256 257 257 258 258 258 259 260 260 260 260 260 260 261 261 261 261 261 260 260 259 260 259 259 258 258 257 255 254 253 253 253 253 255 256
259 260 260 260 260 257 254 254 255 256 256 255 254 253 254 256 256 255 253 250 251 254 256 256 254 253 253 253 252 250 249 249 250 252 254 254 253 252 252 253 255 256 257 258 258 258 257 255 255 255 255 255 256 257 258 259 259 259 259 260 261 261 260 260 260 261 261 262 262 262 261 261 261 262 262 261 260 260 259 257 255 254 253 253 253 254
Height
5853 5856 5859 5862 5865 5870 5874 5877 5879 5879 5880 5882 5883 5885 5888 5889 5890 5891 5892 5894 5895 5896 5896 5897 5900 5903 5905 5906 5906 5908 5909 5910 5912 5913 5914 5916 5917 5918 5919 5921 5922 5924 5925 5927 5928 5929 5930 5931 5932 5933 5934 5934 5935 5936 5937 5939 5940 5941 5942 5942 5943 5944 5944 5944 5945 5945 5945 5946 5947 5948 5950 5951 5952 5953 5953 5954 5954 5955 5956 5957 5958 5959 5960 5960 5960 5961
5850 5854 5858 5862 5865 5868 5872 5875 5877 5878 5879 5880 5881 5883 5886 5888 5889 5889 5890 5891 5893 5894 5895 5896 5898 5902 5904 5904 5905 5907 5908 5910 5911 5912 5913 5915 5916 5918 5919 5920 5922 5924 5925 5926 5928 5929 5931 5932 5932 5933 5934 5935 5935 5936 5938 5939 5940 5942 5942 5943 5944 5944 5945 5945 5946 5946 5947 5947 5948 5949 5951 5952 5954 5954 5955 5955 5956 5956 5957 5958 5960 5961 5962 5962 5963 5963
5847 5852 5856 5860 5863 5866 5869 5872 5874 5877 5879 5879 5879 5881 5884 5887 5888 5888 5888 5890 5891 5893 5894 5895 5897 5900 5901 5902 5904 5906 5907 5908 5910 5911 5912 5914 5916 5918 5919 5920 5922 5923 5925 5926 5927 5929 5931 5932 5933 5933 5934 5935 5936 5937 5938 5939 5941 5942 5943 5944 5945 5945 5946 5946 5947 5947 5948 5949 5950 5951 5952 5954 5955 5956 5957 5957 5958 5958 5959 5960 5961 5962 5963 5964 5964 5965
5845 5850 5854 5857 5860 5863 5866 5870 5872 5874 5877 5877 5877 5879 5881 5885 5887 5886 5887 5888 5890 5892 5893 5894 5896 5898 5899 5900 5902 5904 5905 5907 5909 5910 5911 5914 5915 5917 5919 5921 5922 5923 5925 5926 5927 5929 5930 5932 5933 5934 5935 5935 5936 5937 5938 5939 5941 5942 5943 5944 5945 5946 5947 5947 5948 5949 5949 5950 5951 5952 5954 5955 5956 5957 5958 5958 5959 5960 5961 5961 5962 5963 5964 5965 5966 5966
5844 5849 5852 5855 5858 5860 5864 5868 5870 5872 5874 5875 5876 5878 5880 5883 5885 5885 5886 5888 5890 5892 5893 5894 5895 5897 5898 5898 5900 5902 5903 5905 5907 5909 5911 5912 5914 5916 5918 5920 5922 5923 5924 5926 5927 5928 5930 5932 5933 5934 5935 5936 5936 5937 5938 5940 5941 5942 5944 5945 5946 5947 5947 5948 5949 5950 5950 5951 5952 5953 5955 5956 5957 5958 5959 5960 5960 5961 5962 5963 5964 5964 5965 5966 5967 5968
5842 5846 5849 5852 5855 5858 5862 5866 5868 5869 5872 5875 5877 5878 5879 5881 5883 5884 5885 5887 5890 5892 5892 5892 5894 5896 5897 5898 5898 5900 5902 5904 5906 5908 5910 5911 5912 5915 5918 5919 5921 5923 5924 5926 5927 5928 5930 5932 5933 5934 5935 5936 5937 5938 5939 5940 5941 5943 5944 5945 5946 5947 5948 5949 5950 5951 5952 5953 5954 5954 5956 5957 5958 5959 5960 5961 5961 5962 5963 5964 5965 5966 5967 5968 5969 5969
5839 5844 5846 5849 5852 5856 5860 5862 5864 5866 5870 5874 5877 5877 5879 5880 5882 5883 5884 5886 5889 5891 5891 5891 5893 5894 5896 5897 5898 5899 5900 5902 5904 5907 5909 5911 5912 5915 5917 5918 5921 5923 5924 5925 5927 5928 5930 5932 5933 5934 5935 5936 5937 5938 5939 5940 5941 5943 5944 5945 5946 5947 5948 5949 5950 5951 5953 5954 5954 5955 5957 5958 5959 5960 5961 5962 5962 5963 5964 5965 5966 5967 5968 5969 5970 5970
5837 5841 5844 5847 5850 5853 5856 5859 5862 5865 5869 5873 5875 5876 5878 5879 5881 5883 5883 5885 5887 5889 5890 5891 5892 5893 5895 5896 5897 5898 5899 5901 5903 5905 5908 5910 5912 5914 5916 5918 5920 5922 5923 5924 5926 5928 5930 5931 5933 5934 5935 5936 5938 5939 5939 5940 5941 5943 5944 5945 5946 5947 5949 5950 5951 5952 5953 5954 5955 5956 5958 5959 5959 5961 5962 5963 5963 5964 5965 5966 5967 5968 5969 5970 5971 5972
5835 5838 5841 5845 5848 5851 5855 5859 5862 5863 5866 5870 5872 5875 5877 5877 5879 5881 5882 5883 5885 5887 5889 5890 5891 5893 5894 5896 5897 5898 5900 5901 5903 5905 5907 5910 5912 5914 5915 5917 5919 5921 5923 5924 5925 5927 5929 5931 5932 5934 5935 5936 5938 5939 5940 5941 5942 5943 5944 5945 5946 5947 5948 5950 5951 5952 5953 5954 5955 5957 5958 5960 5961 5962 5963 5963 5964 5965 5966 5967 5968 5969 5970 5971 5972 5973
5832 5837 5840 5843 5846 5849 5852 5855 5857 5860 5864 5868 5871 5874 5876 5876 5877 5879 5880 5882 5883 5885 5887 5889 5891 5893 5894 5895 5897 5898 5900 5901 5903 5905 5907 5909 5912 5913 5914 5916 5919 5921 5922 5923 5925 5926 5928 5930 5932 5933 5935 5936 5938 5939 5940 5941 5942 5943 5944 5945 5947 5948 5949 5950 5951 5953 5954 5954 5956 5957 5959 5960 5962 5963 5963 5964 5965 5966 5967 5968 5969 5970 5971 5972 5973 5974
5830 5835 5838 5840 5842 5844 5847 5850 5854 5857 5861 5867 5870 5872 5874 5875 5877 5877 5877 5879 5880 5882 5886 5889 5890 5891 5894 5895 5896 5898 5899 5900 5902 5904 5906 5909 5911 5913 5914 5916 5918 5919 5921 5922 5924 5925 5927 5929 5931 5933 5934 5936 5937 5939 5940 5940 5941 5943 5944 5945 5947 5948 5949 5950 5951 5953 5954 5955 5956 5957 5959 5960 5962 5963 5964 5965 5966 5967 5968 5969 5970 5971 5972 5973 5973 5974
5829 5832 5835 5837 5839 5840 5843 5849 5853 5855 5858 5863 5866 5869 5872 5874 5875 5876 5876 5876 5878 5881 5884 5887 5889 5890 5892 5894 5895 5896 5898 5899 5901 5904 5906 5907 5909 5912 5914 5916 5917 5918 5919 5921 5923 5925 5926 5928 5930 5932 5933 5935 5937 5938 5939 5940 5941 5942 5943 5945 5946 5947 5949 5950 5951 5952 5954 5955 5956 5957 5958 5960 5962 5963 5964 5966 5966 5967 5968 5969 5970 5971 5972 5973 5974 5974
5826 5829 5831 5833 5836 5839 5842 5847 5851 5852 5856 5860 5863 5867 5870 5871 5872 5874 5875 5876 5878 5882 5884 5885 5886 5888 5890 5891 5893 5895 5897 5898 5901 5903 5905 5906 5908 5911 5913 5914 5914 5915 5917 5919 5922 5924 5926 5928 5929 5931 5932 5934 5935 5937 5938 5939 5940 5941 5942 5944 5945 5947 5948 5949 5950 5952 5953 5955 5956 5957 5958 5959 5961 5962 5964 5966 5967 5967 5968 5969 5970 5971 5972 5973 5973 5974
5824 5826 5827 5829 5833 5836 5839 5843 5847 5849 5854 5858 5861 5865 5867 5868 5869 5871 5874 5876 5878 5882 5883 5882 5884 5886 5888 5891 5892 5894 5896 5897 5900 5902 5904 5906 5908 5909 5911 5913 5913 5914 5917 5919 5921 5923 5925 5926 5928 5930 5931 5932 5934 5936 5937 5938 5939 5940 5941 5943 5944 5946 5947 5949 5950 5951 5953 5954 5955 5957 5958 5959 5960 5962 5963 5965 5966 5967 5968 5969 5970 5970 5971 5972 5973 5974
5823 5824 5824 5827 5830 5833 5837 5841 5843 5847 5853 5857 5858 5862 5864 5865 5868 5872 5874 5876 5879 5882 5882 5881 5882 5883 5886 5890 5891 5893 5895 5896 5898 5901 5903 5905 5907 5909 5910 5912 5913 5914 5916 5919 5921 5922 5923 5924 5926 5928 5929 5931 5933 5934 5935 5937 5938 5939 5940 5941 5943 5945 5946 5948 5949 5951 5952 5953 5954 5956 5957 5958 5960 5961 5962 5964 5965 5967 5968 5969 5969 5970 5971 5971 5972 5973
5820 5822 5824 5826 5828 5831 5837 5839 5840 5844 5850 5854 5856 5860 5863 5865 5869 5872 5875 5877 5880 5882 5880 5879 5880 5881 5884 5887 5888 5890 5892 5894 5895 5898 5902 5904 5906 5907 5908 5909 5910 5911 5914 5917 5918 5920 5921 5921 5923 5926 5928 5930 5931 5932 5934 5935 5936 5937 5939 5940 5942 5944 5945 5947 5948 5950 5952 5953 5954 5955 5956 5957 5959 5960 5962 5963 5964 5966 5967 5968 5969 5970 5970 5971 5971 5972
5817 5820 5823 5825 5826 5831 5835 5837 5839 5842 5846 5850 5855 5858 5861 5865 5868 5871 5873 5876 5879 5880 5878 5876 5877 5879 5882 5885 5886 5887 5889 5892 5893 5896 5900 5902 5904 5905 5906 5907 5909 5909 5911 5914 5915 5916 5918 5920 5923 5926 5928 5929 5930 5931 5933 5935 5936 5936 5938 5939 5941 5943 5944 5946 5947 5949 5950 5952 5953 5954 5955 5956 5958 5959 5961 5962 5963 5965 5966 5967 5968 5969 5970 5970 5971 5971
5813 5817 5821 5822 5825 5831 5833 5834 5837 5841 5844 5847 5851 5854 5857 5862 5865 5867 5869 5873 5876 5877 5876 5875 5875 5878 5882 5884 5885 5886 5889 5891 5893 5895 5898 5900 5903 5905 5906 5908 5909 5909 5909 5910 5913 5915 5918 5921 5924 5926 5926 5927 5928 5929 5931 5934 5936 5937 5938 5939 5941 5942 5943 5945 5946 5947 5949 5950 5952 5953 5954 5955 5956 5958 5959 5961 5963 5964 5965 5966 5967 5968 5969 5970 5970 5971
5812 5816 5818 5819 5823 5828 5830 5831 5834 5838 5841 5843 5845 5850 5856 5859 5862 5863 5865 5869 5873 5873 5872 5872 5873 5875 5878 5880 5882 5885 5888 5890 5892 5894 5897 5898 5902 5904 5905 5907 5908 5907 5908 5910 5913 5916 5918 5921 5922 5922 5923 5923 5925 5928 5929 5930 5933 5936 5937 5938 5939 5940 5941 5943 5944 5946 5947 5949 5950 5951 5952 5953 5955 5956 5958 5960 5961 5963 5964 5965 5966 5967 5968 5969 5970 5970
5811 5813 5814 5816 5820 5824 5826 5829 5834 5838 5840 5841 5844 5849 5853 5857 5859 5862 5863 5866 5869 5869 5869 5870 5870 5872 5874 5876 5878 5880 5883 5887 5889 5892 5895 5897 5899 5901 5902 5904 5906 5905 5907 5910 5914 5916 5918 5919 5919 5920 5922 5923 5925 5928 5928 5928 5931 5935 5936 5936 5936 5937 5938 5940 5942 5943 5945 5947 5949 5950 5951 5952 5953 5955 5956 5958 5960 5961 5963 5964 5965 5966 5967 5968 5969 5970
5808 5810 5811 5814 5817 5820 5823 5828 5833 5837 5839 5842 5845 5848 5853 5857 5858 5860 5862 5865 5867 5867 5867 5868 5869 5871 5873 5875 5876 5876 5879 5883 5887 5890 5893 5895 5897 5898 5900 5903 5904 5905 5907 5909 5912 5914 5916 5917 5918 5919 5921 5924 5926 5927 5926 5927 5929 5931 5932 5933 5933 5933 5934 5936 5938 5940 5942 5944 5947 5949 5951 5952 5953 5954 5955 5957 5959 5960 5961 5963 5964 5965 5966 5967 5968 5968
5804 5806 5810 5813 5815 5818 5823 5827 5833 5837 5838 5840 5844 5848 5853 5857 5858 5860 5862 5864 5864 5864 5863 5865 5868 5869 5870 5873 5874 5875 5877 5881 5885 5888 5891 5892 5894 5895 5898 5901 5904 5906 5907 5908 5909 5911 5913 5915 5916 5917 5919 5922 5924 5925 5924 5925 5926 5928 5929 5929 5930 5932 5933 5933 5935 5938 5940 5942 5944 5946 5949 5951 5952 5954 5954 5956 5957 5959 5960 5962 5963 5964 5965 5966 5966 5967
5803 5805 5808 5811 5814 5817 5820 5825 5830 5833 5835 5837 5841 5846 5851 5855 5855 5856 5858 5859 5859 5859 5860 5863 5865 5866 5867 5869 5871 5873 5875 5878 5883 5886 5888 5889 5890 5892 5895 5898 5901 5903 5905 5906 5907 5908 5910 5912 5915 5916 5917 5920 5922 5923 5923 5925 5927 5929 5929 5929 5930 5933 5934 5934 5936 5939 5939 5940 5942 5944 5946 5949 5951 5953 5954 5955 5956 5957 5959 5960 5961 5962 5963 5964 5965 5966
5802 5804 5807 5810 5812 5815 5818 5823 5827 5828 5831 5836 5842 5846 5848 5849 5849 5850 5853 5854 5855 5856 5858 5860 5861 5863 5865 5867 5869 5871 5872 5875 5879 5883 5886 5888 5888 5889 5891 5894 5897 5900 5902 5904 5906 5907 5908 5910 5913 5915 5917 5918 5919 5920 5922 5925 5928 5928 5927 5928 5930 5932 5933 5934 5937 5939 5938 5939 5941 5943 5945 5947 5949 5951 5953 5954 5955 5955 5956 5958 5959 5961 5962 5963 5964 5965
5801 5803 5806 5808 5811 5813 5816 5821 5824 5826 5830 5835 5839 5843 5843 5842 5844 5849 5851 5850 5850 5853 5855 5856 5858 5860 5862 5864 5866 5868 5869 5870 5875 5880 5884 5886 5886 5887 5888 5891 5893 5895 5898 5901 5903 5905 5906 5908 5910 5912 5915 5916 5917 5918 5921 5924 5924 5923 5923 5923 5925 5928 5929 5930 5933 5935 5937 5938 5939 5940 5943 5946 5948 5949 5950 5952 5953 5953 5954 5955 5957 5958 5959 5960 5962 5963
5800 5803 5804 5805 5807 5810 5814 5818 5821 5825 5829 5833 5836 5840 5840 5839 5842 5846 5847 5846 5846 5849 5851 5852 5855 5857 5859 5861 5863 5865 5865 5866 5872 5878 5882 5884 5884 5884 5886 5888 5890 5892 5894 5897 5900 5901 5903 5905 5906 5908 5910 5912 5914 5915 5917 5918 5917 5917 5918 5919 5922 5924 5925 5926 5928 5931 5933 5935 5936 5937 5940 5944 5946 5946 5946 5948 5949 5950 5951 5953 5954 5955 5956 5958 5959 5960
5799 5802 5804 5805 5807 5809 5812 5814 5817 5821 5825 5829 5833 5836 5835 5835 5839 5843 5844 5842 5842 5844 5847 5848 5851 5854 5856 5857 5860 5862 5862 5863 5869 5874 5878 5880 5881 5881 5883 5885 5887 5889 5891 5894 5896 5898 5900 5902 5903 5905 5906 5908 5909 5910 5912 5912 5913 5913 5915 5916 5919 5921 5923 5924 5925 5927 5929 5930 5932 5934 5937 5940 5941 5941 5942 5944 5946 5947 5948 5949 5951 5952 5954 5955 5957 5958
5797 5800 5802 5804 5807 5809 5810 5811 5814 5818 5821 5824 5828 5830 5829 5831 5837 5842 5841 5839 5840 5843 5844 5845 5848 5851 5853 5854 5857 5859 5860 5862 5866 5870 5873 5877 5880 5880 5881 5883 5885 5887 5889 5891 5894 5896 5898 5900 5901 5903 5905 5906 5907 5908 5909 5910 5911 5913 5914 5915 5916 5919 5921 5922 5923 5924 5926 5927 5928 5930 5933 5935 5937 5938 5939 5941 5943 5945 5946 5947 5948 5950 5952 5953 5955 5957
5795 5797 5798 5801 5804 5807 5809 5811 5813 5816 5818 5821 5825 5826 5825 5828 5834 5839 5839 5837 5839 5841 5842 5843 5846 5848 5849 5851 5854 5856 5858 5861 5864 5866 5869 5874 5878 5879 5880 5881 5883 5885 5887 5889 5892 5894 5896 5897 5899 5901 5903 5905 5906 5907 5907 5908 5910 5911 5912 5913 5915 5917 5919 5920 5921 5922 5923 5924 5926 5928 5930 5932 5933 5935 5937 5939 5941 5943 5945 5946 5947 5949 5952 5953 5954 5956
5794 5794 5795 5799 5802 5804 5807 5810 5811 5813 5816 5820 5822 5821 5822 5826 5832 5837 5837 5835 5837 5839 5840 5842 5844 5845 5847 5849 5851 5855 5857 5860 5862 5864 5866 5870 5875 5878 5878 5879 5881 5883 5885 5887 5889 5891 5893 5895 5896 5898 5901 5903 5904 5905 5905 5906 5907 5909 5910 5911 5912 5914 5916 5918 5919 5920 5921 5923 5924 5927 5929 5930 5931 5932 5934 5936 5938 5940 5944 5946 5947 5948 5950 5952 5954 5956
5792 5792 5794 5798 5801 5802 5804 5807 5809 5811 5814 5816 5817 5819 5822 5827 5831 5834 5832 5830 5834 5838 5839 5840 5841 5843 5845 5846 5849 5853 5856 5858 5860 5862 5864 5867 5872 5875 5876 5877 5878 5880 5882 5884 5886 5888 5890 5892 5893 5895 5897 5899 5901 5902 5903 5903 5904 5906 5908 5909 5910 5912 5914 5916 5917 5918 5919 5920 5922 5924 5926 5927 5928 5930 5931 5934 5936 5939 5943 5944 5945 5946 5947 5949 5951 5953
5789 5790 5792 5796 5799 5800 5803 5806 5807 5808 5810 5812 5814 5817 5821 5824 5828 5830 5828 5828 5831 5834 5836 5837 5838 5841 5844 5845 5848 5851 5853 5856 5858 5859 5861 5865 5869 5872 5873 5874 5876 5877 5878 5880 5882 5884 5887 5889 5891 5892 5893 5895 5897 5899 5900 5901 5902 5903 5905 5907 5909 5910 5912 5914 5915 5916 5917 5918 5920 5922 5924 5925 5926 5927 5929 5931 5934 5937 5940 5941 5942 5943 5944 5945 5947 5949
5786 5789 5790 5793 5796 5798 5801 5804 5805 5806 5808 5810 5812 5814 5817 5821 5825 5827 5827 5826 5827 5829 5832 5835 5837 5840 5842 5843 5845 5848 5851 5853 5854 5856 5858 5861 5865 5869 5870 5872 5873 5874 5875 5877 5878 5880 5882 5885 5887 5889 5891 5892 5893 5895 5896 5898 5899 5900 5902 5904 5907 5909 5911 5912 5913 5914 5916 5917 5918 5920 5921 5923 5924 5926 5927 5928 5930 5933 5936 5938 5939 5940 5941 5942 5944 5945
5784 5786 5788 5790 5793 5796 5797 5798 5799 5803 5806 5808 5809 5811 5815 5819 5822 5825 5826 5824 5823 5825 5829 5833 5835 5837 5838 5840 5843 5844 5847 5850 5851 5853 5855 5857 5860 5865 5867 5869 5870 5871 5873 5874 5875 5877 5878 5880 5882 5885 5887 5888 5890 5891 5893 5894 5895 5897 5899 5902 5904 5906 5908 5910 5911 5912 5914 5915 5916 5917 5919 5920 5922 5924 5925 5926 5927 5930 5932 5934 5935 5936 5937 5939 5940 5941
5781 5783 5785 5787 5790 5793 5793 5793 5795 5799 5802 5804 5807 5810 5812 5815 5818 5822 5821 5818 5819 5823 5826 5830 5833 5833 5834 5836 5838 5840 5843 5845 5847 5850 5852 5854 5857 5860 5863 5865 5867 5868 5869 5871 5872 5873 5875 5876 5878 5880 5882 5884 5886 5887 5889 5890 5892 5893 5895 5897 5900 5902 5904 5907 5908 5910 5912 5913 5914 5915 5916 5917 5919 5920 5922 5923 5925 5927 5928 5929 5930 5931 5932 5934 5935 5937
5779 5781 5782 5785 5787 5790 5791 5791 5792 5795 5798 5801 5805 5807 5808 5810 5813 5816 5815 5814 5817 5821 5824 5827 5829 5829 5830 5831 5833 5836 5838 5840 5843 5846 5849 5850 5852 5856 5859 5862 5863 5864 5866 5867 5869 5870 5871 5872 5874 5875 5877 5879 5881 5883 5884 5886 5888 5889 5890 5892 5895 5897 5900 5903 5905 5907 5909 5911 5912 5913 5913 5914 5915 5917 5918 5920 5921 5923 5924 5925 5926 5927 5928 5929 5931 5932
5777 5778 5780 5782 5785 5787 5788 5788 5789 5792 5794 5798 5801 5802 5803 5806 5808 5809 5810 5812 5815 5819 5822 5825 5824 5824 5825 5826 5828 5831 5832 5834 5839 5842 5845 5846 5848 5851 5856 5858 5858 5860 5862 5864 5865 5866 5867 5869 5870 5872 5873 5874 5876 5878 5880 5882 5884 5885 5886 5888 5889 5892 5895 5898 5900 5903 5905 5907 5909 5910 5911 5912 5912 5913 5914 5916 5917 5918 5919 5921 5923 5924 5926 5927 5927 5928
5774 5776 5778 5779 5782 5784 5785 5785 5786 5788 5789 5792 5794 5797 5799 5801 5803 5805 5807 5809 5811 5815 5819 5821 5820 5820 5821 5822 5823 5825 5826 5829 5833 5836 5840 5843 5844 5846 5851 5854 5856 5857 5858 5860 5862 5862 5862 5864 5866 5868 5870 5870 5871 5873 5876 5878 5880 5882 5883 5884 5885 5887 5889 5892 5895 5897 5900 5902 5904 5906 5908 5909 5910 5910 5911 5912 5913 5914 5915 5917 5918 5920 5922 5924 5925 5925
5772 5774 5775 5777 5779 5781 5782 5782 5783 5784 5785 5786 5789 5793 5796 5799 5800 5802 5804 5805 5806 5809 5812 5815 5815 5814 5814 5818 5821 5822 5822 5824 5827 5830 5835 5839 5841 5843 5847 5851 5853 5853 5852 5855 5857 5855 5857 5860 5863 5864 5865 5865 5866 5868 5872 5874 5876 5877 5879 5880 5882 5883 5884 5886 5889 5891 5894 5896 5899 5901 5903 5905 5906 5907 5908 5909 5910 5911 5912 5913 5915 5916 5918 5920 5921 5922
5770 5772 5773 5775 5777 5778 5779 5780 5780 5780 5781 5783 5785 5789 5792 5794 5795 5797 5798 5799 5801 5803 5806 5809 5809 5807 5809 5815 5819 5820 5820 5821 5823 5824 5827 5833 5838 5841 5843 5845 5847 5848 5849 5851 5850 5849 5854 5857 5857 5858 5860 5860 5861 5864 5868 5870 5871 5872 5873 5876 5878 5879 5880 5882 5884 5886 5888 5890 5892 5895 5897 5900 5902 5903 5904 5905 5907 5908 5908 5909 5911 5912 5913 5915 5917 5917
5768 5769 5770 5772 5774 5775 5776 5777 5777 5778 5779 5780 5782 5784 5787 5789 5791 5792 5794 5795 5797 5799 5801 5802 5802 5802 5806 5812 5815 5816 5818 5818 5817 5818 5821 5827 5832 5836 5838 5840 5842 5844 5845 5844 5843 5846 5850 5851 5850 5852 5855 5856 5858 5860 5862 5864 5865 5867 5868 5870 5872 5875 5876 5878 5879 5881 5883 5884 5886 5889 5891 5893 5896 5898 5899 5900 5902 5903 5905 5906 5907 5908 5910 5911 5912 5913
5765 5766 5767 5769 5770 5772 5773 5774 5774 5775 5776 5777 5779 5781 5783 5785 5786 5787 5790 5792 5795 5796 5795 5796 5798 5800 5804 5808 5811 5812 5812 5811 5812 5814 5817 5821 5824 5828 5832 5834 5836 5838 5838 5838 5840 5843 5845 5844 5845 5847 5850 5852 5854 5855 5855 5857 5860 5861 5862 5864 5866 5869 5872 5874 5875 5876 5878 5879 5881 5883 5885 5887 5890 5892 5894 5896 5897 5899 5901 5902 5904 5905 5906 5908 5909 5909
5763 5764 5765 5766 5767 5768 5769 5770 5771 5772 5773 5775 5776 5777 5779 5781 5782 5783 5786 5789 5790 5791 5791 5792 5795 5797 5800 5803 5806 5806 5806 5807 5808 5809 5811 5813 5816 5820 5825 5828 5830 5831 5831 5833 5837 5839 5838 5838 5840 5842 5843 5846 5848 5849 5850 5851 5854 5856 5857 5859 5860 5863 5865 5868 5870 5871 5872 5874 5876 5877 5879 5881 5884 5887 5889 5891 5892 5894 5896 5899 5900 5902 5903 5904 5905 5906
5762 5762 5763 5764 5764 5765 5766 5766 5768 5769 5770 5771 5773 5774 5775 5776 5778 5779 5782 5783 5785 5786 5787 5788 5790 5793 5795 5799 5801 5801 5802 5803 5802 5803 5805 5807 5809 5813 5818 5821 5822 5824 5826 5828 5831 5832 5832 5833 5835 5836 5838 5840 5841 5842 5844 5845 5848 5850 5851 5853 5854 5856 5858 5861 5863 5865 5867 5870 5871 5872 5873 5875 5878 5880 5883 5885 5887 5888 5891 5893 5895 5897 5899 5900 5901 5902
5759 5760 5761 5761 5762 5762 5763 5763 5765 5766 5767 5768 5769 5770 5770 5772 5774 5775 5776 5778 5780 5781 5782 5783 5786 5788 5791 5794 5795 5795 5796 5796 5796 5798 5801 5802 5804 5807 5810 5812 5814 5817 5819 5821 5823 5824 5826 5828 5829 5830 5832 5834 5835 5836 5837 5839 5842 5843 5844 5846 5847 5849 5851 5854 5856 5859 5861 5863 5865 5866 5868 5869 5871 5873 5876 5878 5880 5883 5885 5886 5888 5891 5893 5895 5896 5897
5756 5757 5758 5758 5759 5759 5760 5761 5762 5762 5762 5764 5765 5765 5766 5767 5768 5769 5770 5772 5775 5776 5777 5779 5781 5784 5787 5789 5788 5788 5789 5791 5792 5793 5796 5797 5800 5802 5803 5804 5806 5809 5812 5814 5816 5818 5820 5821 5822 5824 5825 5827 5828 5829 5831 5833 5835 5837 5838 5840 5841 5842 5844 5846 5849 5851 5853 5855 5858 5860 5862 5863 5864 5866 5868 5871 5874 5877 5878 5879 5881 5884 5886 5888 5890 5891
5752 5754 5755 5755 5755 5756 5757 5757 5758 5759 5759 5759 5761 5761 5762 5762 5763 5763 5765 5767 5769 5770 5771 5773 5776 5778 5781 5782 5781 5782 5784 5786 5787 5788 5791 5793 5794 5796 5797 5798 5799 5802 5804 5807 5809 5812 5814 5814 5815 5816 5818 5820 5821 5823 5824 5826 5828 5830 5832 5833 5834 5836 5837 5839 5841 5843 5845 5847 5849 5852 5854 5856 5858 5859 5861 5864 5867 5870 5871 5873 5875 5877 5879 5881 5883 5884
5749 5751 5752 5752 5752 5752 5753 5753 5754 5755 5755 5755 5756 5757 5758 5759 5760 5760 5761 5762 5763 5764 5766 5768 5769 5771 5774 5774 5775 5777 5779 5780 5782 5783 5785 5787 5788 5790 5792 5792 5793 5795 5797 5800 5803 5806 5807 5808 5808 5809 5811 5813 5814 5816 5817 5819 5820 5822 5824 5826 5828 5829 5830 5832 5833 5835 5837 5839 5841 5843 5846 5848 5850 5852 5854 5856 5859 5861 5864 5865 5867 5870 5872 5874 5875 5877
5746 5747 5748 5748 5748 5749 5749 5749 5750 5750 5751 5751 5751 5752 5753 5754 5756 5757 5758 5758 5758 5759 5761 5762 5763 5765 5767 5768 5770 5772 5773 5774 5776 5778 5779 5781 5783 5784 5785 5786 5787 5788 5790 5793 5796 5799 5800 5802 5803 5804 5805 5806 5807 5809 5810 5812 5813 5815 5816 5818 5820 5822 5823 5825 5826 5827 5828 5830 5832 5834 5837 5839 5841 5843 5846 5848 5849 5852 5855 5858 5860 5862 5865 5867 5868 5870
5742 5743 5744 5744 5745 5746 5746 5746 5745 5745 5745 5747 5748 5748 5748 5749 5751 5753 5754 5755 5754 5754 5755 5757 5758 5759 5760 5762 5764 5767 5768 5769 5770 5772 5773 5775 5777 5779 5780 5780 5781 5782 5783 5785 5788 5790 5793 5795 5797 5798 5799 5799 5800 5802 5803 5805 5806 5807 5809 5811 5812 5814 5816 5818 5819 5820 5821 5822 5824 5826 5828 5831 5833 5835 5837 5838 5840 5842 5845 5848 5851 5854 5857 5859 5860 5862
5738 5738 5739 5739 5739 5740 5741 5741 5741 5740 5740 5741 5742 5743 5743 5743 5744 5746 5747 5749 5750 5750 5750 5751 5752 5754 5755 5756 5758 5761 5762 5764 5765 5766 5767 5768 5770 5773 5774 5775 5775 5776 5777 5778 5779 5782 5785 5788 5790 5792 5792 5793 5794 5795 5796 5797 5799 5800 5802 5803 5805 5807 5809 5810 5812 5813 5814 5815 5816 5818 5820 5823 5825 5826 5827 5829 5830 5832 5835 5838 5842 5846 5848 5851 5852 5853